Tracking 19794 objects as of 23-Jul-2019
HD Live streaming from Space Station
objects crossing your sky now

COSMOS 450

Track COSMOS 450 now!
10-day predictions
COSMOS 450 is classified as:


NORAD ID: 5553
Int'l Code: 1971-086G
Perigee: 1,468.6 km
Apogee: 1,536.3 km
Inclination: 74.0 °
Period: 115.9 minutes
Semi major axis: 7873 km
RCS: 0.7187 m2 (medium)
Launch date: October 13, 1971
Source: Commonwealth of Independent States (former USSR) (CIS)
Launch site: PLESETSK MISSILE AND SPACE COMPLEX (PKMTR)
aabbcc
Your satellite tracking list
Your tracking list is empty




NASA's NSSDC Master Catalog

Two Line Element Set (TLE):
1  5553U 71086G   19202.93296604 -.00000023 +00000-0 -55053-4 0  9992
2  5553 074.0282 047.1586 0042999 225.5074 238.0655 12.42660083167074
Source of the keplerian elements: AFSPC